Hillsdale, MI

11:25 AM EST on December 10, 2019 (GMT -0500)
Hillsdale Municipal

Weather History for KJYM - November, 2019

Change the Weather History Date:

Wednesday, November 13, 2019

  Actual Average Record
Temperature  
Mean Temperature 13 °F -  
Max Temperature 23 °F 44 °F 66 °F (2010)
Min Temperature 3 °F 26 °F 11 °F (1986)
Degree Days  
Heating Degree Days 52    
Moisture  
Dew Point 8 °F    
Average Humidity 76    
Maximum Humidity 89    
Minimum Humidity 61    
Precipitation  
Precipitation 0.00 in - - ()
Sea Level Pressure  
Sea Level Pressure 30.23 in    
Wind  
Wind Speed 4 mph ()    
Max Wind Speed 15 mph    
Max Gust Speed 24 mph    
Visibility 9.9 miles    
Events Snow    
Averages and records for this station are not official NWS values.
T = Trace of Precipitation, MM = Missing Value Source: Averaged Metar Reports

Daily Weather History Graph

Daily Weather History Graph

Search for Another Location

Airport or City:

Astronomy

Nov. 13, 2019 Rise Set
Actual Time 7:25 AM EST 5:19 PM EST
Civil Twilight 6:55 AM EST 5:49 PM EST
Nautical Twilight 6:21 AM EST 6:22 PM EST
Astronomical Twilight 5:49 AM EST 6:55 PM EST
Moon 6:21 PM EST (11/13) 8:17 AM EST (11/13)
Length of Visible Light 10h 53m
Length of Day
9h 54m
Full, 99% of the Moon is Illuminated
Nov 13
Full
Nov 19
Last Quarter
Nov 26
New
Dec 4
First Quarter
Dec 12
Full

Hourly Weather History & Observations

Time (EST) Temp. Windchill Dew Point Humidity Pressure Visibility Wind Dir Wind Speed Gust Speed Precip Events Conditions
12:15 AM 10.6 °F - 7.7 °F 88% 30.33 in 10.0 mi Calm Calm - N/A   Scattered Clouds
12:35 AM 10.0 °F - 7.2 °F 88% 30.33 in 10.0 mi Calm Calm - N/A   Clear
12:36 AM 10.0 °F 3.6 °F 7.2 °F 88% 30.33 in 10.0 mi WSW 3.5 mph - N/A   Clear
12:55 AM 9.5 °F 3.0 °F 6.8 °F 89% 30.34 in 10.0 mi WSW 3.5 mph - N/A   Clear
12:56 AM 9.5 °F 3.0 °F 6.6 °F 88% 30.34 in 10.0 mi WSW 3.5 mph - N/A   Clear
1:15 AM 9.0 °F - 5.9 °F 87% 30.34 in 10.0 mi Calm Calm - N/A   Clear
1:35 AM 8.8 °F 2.2 °F 5.5 °F 87% 30.34 in 10.0 mi WSW 3.5 mph - N/A   Clear
1:36 AM 8.6 °F - 5.4 °F 87% 30.34 in 10.0 mi Calm Calm - N/A   Clear
1:55 AM 8.1 °F -0.5 °F 4.8 °F 87% 30.34 in 10.0 mi WSW 4.6 mph - N/A   Clear
1:56 AM 8.1 °F 1.4 °F 4.8 °F 87% 30.34 in 10.0 mi WSW 3.5 mph - N/A   Clear
2:15 AM 7.7 °F - 4.5 °F 87% 30.33 in 10.0 mi Calm Calm - N/A   Clear
2:35 AM 6.8 °F - 3.6 °F 87% 30.33 in 10.0 mi Calm Calm - N/A   Clear
2:36 AM 6.8 °F - 3.4 °F 86% 30.33 in 10.0 mi Calm Calm - N/A   Clear
2:55 AM 4.5 °F - 0.7 °F 84% 30.33 in 10.0 mi Calm Calm - N/A   Clear
2:56 AM 4.3 °F - 0.5 °F 84% 30.33 in 10.0 mi Calm Calm - N/A   Clear
3:15 AM 3.7 °F - -0.2 °F 84% 30.33 in 10.0 mi Calm Calm - N/A   Clear
3:16 AM 3.9 °F - -0.0 °F 84% 30.33 in 10.0 mi Calm Calm - N/A   Clear
3:35 AM 5.2 °F - 1.6 °F 85% 30.33 in 10.0 mi Calm Calm - N/A   Clear
3:36 AM 5.5 °F - 1.9 °F 85% 30.33 in 10.0 mi Calm Calm - N/A   Clear
3:55 AM 5.0 °F - 1.4 °F 85% 30.33 in 10.0 mi Calm Calm - N/A   Clear
3:56 AM 5.0 °F - 1.4 °F 85% 30.33 in 10.0 mi Calm Calm - N/A   Clear
4:15 AM 5.0 °F - 1.8 °F 86% 30.33 in 10.0 mi Calm Calm - N/A   Clear
4:35 AM 5.0 °F - 1.4 °F 85% 30.33 in 10.0 mi Calm Calm - N/A   Clear
4:36 AM 5.2 °F - 1.8 °F 86% 30.33 in 10.0 mi Calm Calm - N/A   Clear
4:55 AM 5.9 °F - 2.3 °F 85% 30.34 in 10.0 mi Calm Calm - N/A   Clear
5:15 AM 5.0 °F - 1.4 °F 85% 30.33 in 10.0 mi Calm Calm - N/A   Clear
5:35 AM 5.9 °F - 2.7 °F 87% 30.32 in 10.0 mi Calm Calm - N/A   Clear
5:55 AM 5.9 °F - 2.1 °F 84% 30.31 in 10.0 mi Calm Calm - N/A   Clear
6:15 AM 6.1 °F - 2.3 °F 84% 30.30 in 10.0 mi Calm Calm - N/A   Scattered Clouds
6:35 AM 8.4 °F 1.8 °F 4.8 °F 85% 30.30 in 10.0 mi SSE 3.5 mph - N/A   Mostly Cloudy
6:55 AM 7.7 °F 1.0 °F 3.4 °F 83% 30.30 in 10.0 mi South 3.5 mph - N/A   Scattered Clouds
7:15 AM 7.7 °F 1.0 °F 3.2 °F 82% 30.30 in 10.0 mi SSE 3.5 mph - N/A   Scattered Clouds
7:35 AM 8.4 °F -0.1 °F 3.2 °F 79% 30.30 in 10.0 mi South 4.6 mph - N/A   Clear
7:55 AM 9.1 °F 2.6 °F 3.9 °F 79% 30.30 in 10.0 mi South 3.5 mph - N/A   Scattered Clouds
7:56 AM 9.3 °F 1.0 °F 3.9 °F 79% 30.30 in 10.0 mi South 4.6 mph - N/A   Scattered Clouds
8:15 AM 10.0 °F 1.8 °F 3.7 °F 76% 30.30 in 10.0 mi South 4.6 mph - N/A   Scattered Clouds
8:35 AM 10.8 °F 1.2 °F 3.9 °F 74% 30.30 in 10.0 mi South 5.8 mph - N/A   Scattered Clouds
8:55 AM 11.1 °F 1.7 °F 4.1 °F 73% 30.31 in 10.0 mi South 5.8 mph - N/A   Clear
9:15 AM 12.0 °F 4.1 °F 3.2 °F 68% 30.31 in 10.0 mi South 4.6 mph - N/A   Clear
9:35 AM 12.7 °F 1.4 °F 3.0 °F 65% 30.31 in 10.0 mi South 8.1 mph - N/A   Clear
9:55 AM 13.6 °F 2.5 °F 3.2 °F 63% 30.30 in 10.0 mi South 8.1 mph 16.1 mph N/A   Clear
10:15 AM 13.8 °F 1.8 °F 3.2 °F 63% 30.30 in 10.0 mi South 9.2 mph - N/A   Mostly Cloudy
10:16 AM 13.8 °F 1.8 °F 3.2 °F 63% 30.30 in 10.0 mi South 9.2 mph - N/A   Mostly Cloudy
10:35 AM 14.4 °F 2.4 °F 4.6 °F 65% 30.29 in 10.0 mi South 9.2 mph - N/A   Overcast
10:55 AM 15.4 °F 4.6 °F 5.7 °F 65% 30.29 in 10.0 mi South 8.1 mph - N/A   Scattered Clouds
10:56 AM 15.4 °F 3.0 °F 5.7 °F 65% 30.29 in 10.0 mi South 10.4 mph - N/A   Scattered Clouds
11:15 AM 16.0 °F 1.7 °F 5.9 °F 65% 30.29 in 10.0 mi South 13.8 mph 17.3 mph N/A   Clear
11:16 AM 16.2 °F 1.9 °F 5.9 °F 64% 30.29 in 10.0 mi South 13.8 mph 17.3 mph N/A   Clear
11:35 AM 16.5 °F 3.6 °F 6.3 °F 64% 30.29 in 10.0 mi South 11.5 mph - N/A   Scattered Clouds
11:55 AM 16.7 °F 2.6 °F 6.8 °F 65% 30.29 in 10.0 mi South 13.8 mph 17.3 mph N/A   Scattered Clouds
12:15 PM 17.6 °F 3.7 °F 7.5 °F 65% 30.28 in 10.0 mi South 13.8 mph 18.4 mph N/A   Scattered Clouds
12:16 PM 17.4 °F 4.1 °F 7.5 °F 65% 30.28 in 10.0 mi South 12.7 mph 18.4 mph N/A   Scattered Clouds
12:35 PM 17.6 °F 4.3 °F 7.5 °F 65% 30.27 in 10.0 mi South 12.7 mph - N/A   Scattered Clouds
12:55 PM 18.0 °F 6.9 °F 7.5 °F 64% 30.25 in 10.0 mi South 9.2 mph 16.1 mph N/A   Mostly Cloudy
1:15 PM 18.1 °F 7.9 °F 7.9 °F 64% 30.25 in 10.0 mi South 8.1 mph - N/A   Overcast
1:16 PM 18.3 °F 9.1 °F 7.9 °F 64% 30.25 in 10.0 mi South 6.9 mph - N/A   Overcast
1:35 PM 18.3 °F 5.2 °F 6.8 °F 61% 30.23 in 10.0 mi South 12.7 mph - N/A   Overcast
2:15 PM 18.5 °F 6.1 °F 7.7 °F 63% 30.19 in 10.0 mi South 11.5 mph - N/A   Mostly Cloudy
2:35 PM 18.5 °F 6.8 °F 7.3 °F 62% 30.18 in 10.0 mi SE 10.4 mph - N/A   Mostly Cloudy
2:36 PM 18.5 °F 8.4 °F 7.3 °F 62% 30.18 in 10.0 mi SSE 8.1 mph - N/A   Mostly Cloudy
2:55 PM 18.9 °F 8.8 °F 8.4 °F 64% 30.17 in 10.0 mi SSE 8.1 mph - N/A   Scattered Clouds
3:15 PM 18.5 °F 6.1 °F 8.8 °F 66% 30.16 in 10.0 mi SSE 11.5 mph 18.4 mph N/A   Clear
3:35 PM 18.5 °F 6.1 °F 9.5 °F 68% 30.15 in 10.0 mi SSE 11.5 mph 17.3 mph N/A   Clear
4:15 PM 18.5 °F 4.9 °F 10.0 °F 70% 30.15 in 10.0 mi South 13.8 mph - N/A   Clear
4:35 PM 18.9 °F 8.0 °F 10.2 °F 69% 30.14 in 10.0 mi South 9.2 mph 16.1 mph N/A   Clear
4:36 PM 18.9 °F 8.0 °F 10.2 °F 69% 30.14 in 10.0 mi South 9.2 mph 16.1 mph N/A   Clear
4:55 PM 19.0 °F 6.1 °F 10.2 °F 69% 30.14 in 10.0 mi South 12.7 mph 17.3 mph N/A   Clear
5:15 PM 19.0 °F 6.1 °F 10.4 °F 69% 30.13 in 10.0 mi SSE 12.7 mph 18.4 mph N/A   Clear
5:35 PM 19.2 °F 6.4 °F 10.9 °F 70% 30.11 in 10.0 mi SSE 12.7 mph 18.4 mph N/A   Clear
5:55 PM 19.4 °F 7.9 °F 11.8 °F 72% 30.11 in 10.0 mi South 10.4 mph - N/A   Clear
5:56 PM 19.4 °F 7.9 °F 11.8 °F 72% 30.11 in 10.0 mi South 10.4 mph - N/A   Clear
6:15 PM 19.4 °F 6.6 °F 12.0 °F 73% 30.10 in 10.0 mi South 12.7 mph 19.6 mph N/A   Clear
6:35 PM 19.4 °F 6.0 °F 12.2 °F 74% 30.10 in 10.0 mi South 13.8 mph 24.2 mph N/A   Scattered Clouds
6:55 PM 19.8 °F 6.5 °F 12.2 °F 72% 30.10 in 10.0 mi South 13.8 mph 19.6 mph N/A   Mostly Cloudy
7:15 PM 19.9 °F 6.2 °F 12.7 °F 74% 30.09 in 10.0 mi South 15.0 mph 19.6 mph N/A   Mostly Cloudy
7:35 PM 20.1 °F 8.8 °F 13.1 °F 74% 30.09 in 10.0 mi SSE 10.4 mph 16.1 mph N/A   Mostly Cloudy
7:55 PM 20.1 °F 8.8 °F 13.1 °F 74% 30.09 in 10.0 mi SSE 10.4 mph - N/A   Overcast
8:15 PM 20.3 °F 7.7 °F 13.6 °F 75% 30.09 in 10.0 mi South 12.7 mph 18.4 mph N/A   Mostly Cloudy
8:35 PM 20.3 °F 8.3 °F 13.8 °F 76% 30.08 in 10.0 mi South 11.5 mph - N/A   Mostly Cloudy
8:55 PM 20.5 °F 9.2 °F 14.0 °F 76% 30.08 in 10.0 mi South 10.4 mph 16.1 mph N/A   Scattered Clouds
9:15 PM 20.8 °F 11.2 °F 14.4 °F 76% 30.08 in 10.0 mi South 8.1 mph - N/A   Scattered Clouds
9:35 PM 21.2 °F 12.6 °F 14.9 °F 77% 30.09 in 10.0 mi South 6.9 mph - N/A   Overcast
9:55 PM 21.6 °F 12.1 °F 15.3 °F 77% 30.09 in 10.0 mi South 8.1 mph - N/A   Overcast
9:56 PM 21.6 °F 13.0 °F 15.3 °F 77% 30.09 in 10.0 mi South 6.9 mph - N/A   Overcast
10:15 PM 21.7 °F 14.3 °F 15.6 °F 77% 30.08 in 10.0 mi South 5.8 mph - N/A   Overcast
10:35 PM 21.9 °F 15.7 °F 15.8 °F 77% 30.08 in 10.0 mi South 4.6 mph - N/A   Overcast
10:36 PM 21.9 °F 14.5 °F 15.8 °F 77% 30.08 in 10.0 mi South 5.8 mph - N/A   Overcast
10:55 PM 22.1 °F 14.7 °F 16.3 °F 79% 30.07 in 10.0 mi South 5.8 mph - N/A   Overcast
11:15 PM 22.5 °F 15.1 °F 16.7 °F 79% 30.08 in 10.0 mi South 5.8 mph - N/A   Overcast
11:16 PM 22.5 °F 15.1 °F 16.7 °F 79% 30.08 in 10.0 mi South 5.8 mph - N/A   Overcast
11:35 PM 22.8 °F 16.7 °F 17.2 °F 79% 30.08 in 10.0 mi South 4.6 mph - N/A Snow Light Snow
11:36 PM 22.8 °F 15.5 °F 17.2 °F 79% 30.08 in 10.0 mi South 5.8 mph - N/A Snow Light Snow
11:55 PM 23.0 °F 14.7 °F 18.3 °F 82% 30.08 in 3.0 mi SSW 6.9 mph - N/A Snow Light Snow
11:56 PM 23.0 °F 14.7 °F 18.3 °F 82% 30.08 in 3.0 mi SSW 6.9 mph - N/A Snow Light Snow